[[{"header":{"parameterUnit":"m.s-1","parameterCategory":1,"la1":30.2991,"la2":30.254,"lo1":-89.0895,"lo2":-89.0444,"dy":0.0017,"dx":0.0017,"nx":28,"ny":28,"refTime":"2025-03-11T21:00:00:Z","depth":0,"parameterNumber":2,"parameterNumberName":"U-component_of_WINDS"},"data":[0,0,0,0,0,0,0,0,0,0,0,0,0,0,0,0,0,0,0,0,0,0,0,0,0,0,0,0,0,0,0,0,0,0,0,0,0,0,0,0,0,0,0,0,0,0,0,0,0,0,0,0,0,0,0,0,0,0,3.8193,3.8193,0,3.824,3.8241,3.8241,3.8186,3.8184,3.8182,3.818,3.8228,3.8232,3.8235,0,0,0,0,0,0,0,0,0,0,0,0,0,3.8052,3.8055,3.8193,3.8193,3.8194,3.824,3.8241,3.8242,3.8187,3.8184,3.8182,3.8179,3.8227,3.8231,3.8235,0,0,0,0,0,0,0,0,0,0,0,0,0,3.8108,3.8056,3.8192,3.8172,3.8171,3.824,3.8241,3.8242,3.8187,3.8184,3.8181,3.8178,3.8226,3.8231,3.8236,3.8327,0,0,3.825,3.8252,0,0,0,0,0,0,0,0,3.8105,3.8113,3.8174,3.8174,3.8172,3.8204,3.8209,3.827,3.8188,3.8181,3.818,3.8177,3.8223,3.8228,3.8243,3.833,3.8332,3.8251,3.8254,3.8256,3.8257,0,0,0,0,0,0,0,3.8101,3.8111,3.8211,3.8175,3.8174,3.816,3.8164,3.822,3.8219,3.8181,3.8177,3.8184,3.8222,3.8239,3.8244,3.8332,3.8251,3.8255,3.8258,3.826,3.8493,3.8496,0,0,0,0,0,0,3.81,3.8108,3.821,3.8213,3.813,3.8165,3.817,3.8197,3.8218,3.8218,3.8186,3.8181,3.8232,3.8239,3.8246,3.8352,3.8256,3.826,3.8263,3.849,3.8494,3.8498,0,0,0,0,0,0,3.8097,3.8109,3.8208,3.8159,3.8171,3.8171,3.8202,3.82,3.8217,3.8222,3.8221,3.8205,3.823,3.8239,3.8307,3.8353,3.8262,3.8267,3.8486,3.8491,3.8496,3.8567,0,0,0,0,0,0,3.8093,3.8109,3.8144,3.8161,3.8174,3.8269,3.8204,3.8203,3.8225,3.8219,3.8239,3.8239,3.8228,3.83,3.8312,3.8358,3.827,3.8482,3.8488,3.8494,3.8561,3.8574,3.8586,0,0,0,0,0,3.8088,3.8162,3.8146,3.8159,3.8218,3.8272,3.8279,3.8266,3.823,3.8264,3.8267,3.8238,3.8347,3.8307,3.832,3.8369,3.8479,3.8486,3.8494,3.8555,3.8572,3.8585,0,0,0,0,0,0,3.8151,3.8164,3.8146,3.8228,3.8249,3.8263,3.8306,3.8284,3.8316,3.8308,3.829,3.8295,3.8367,3.8375,3.8331,3.8457,3.8407,3.8417,3.8449,3.8465,3.8477,3.8472,3.8274,0,0,0,0,0,3.8175,3.8218,3.8227,3.8299,3.831,3.8307,3.833,3.8317,3.8338,3.8347,3.8355,3.8376,3.8415,3.844,3.8476,3.8562,3.8565,3.8602,3.8614,3.8625,3.8633,3.8677,3.8693,3.8522,3.8522,3.8522,0,0,3.8224,3.8236,3.8265,3.8312,3.8326,3.8371,3.8314,3.8364,3.8396,3.8355,3.8418,3.8425,3.8447,3.8524,3.8558,3.8533,3.8681,3.8634,3.8642,3.8645,3.8686,3.8702,3.8716,3.8527,3.8526,3.8525,0,0,3.8335,3.835,3.8409,3.8426,3.8449,3.8446,3.846,3.8477,3.848,3.8544,3.8513,3.8551,3.8618,3.8634,3.8652,3.8768,3.8742,3.8781,3.8845,3.8887,3.8901,3.8912,3.8952,3.8966,3.879,3.879,3.879,0,3.8392,3.8458,3.8443,3.8495,3.8515,3.848,3.8539,3.8556,3.859,3.8604,3.8576,3.8658,3.8671,3.875,3.8778,3.8794,3.8809,3.8777,3.89,3.8912,3.8922,3.8959,3.8975,3.8794,3.8794,3.8793,3.8793,0,3.8526,3.8572,3.8618,3.8651,3.8677,3.8733,3.8726,3.8754,3.8739,3.8739,3.8804,3.8818,3.8855,3.8873,3.886,3.895,3.8933,3.8903,3.8851,3.8943,3.8978,3.8992,3.88,3.8799,3.8797,3.8796,0,0,3.8677,3.8701,3.8718,3.8732,3.8755,3.879,3.8843,3.8879,3.8903,3.8928,3.897,3.9028,3.9,3.9019,3.9008,3.9045,3.9134,3.901,3.901,3.903,3.9231,3.9251,3.9268,3.9117,3.912,3.9122,3.9228,0,3.8786,3.8879,3.8867,3.8955,3.8996,3.8963,3.9009,3.9028,3.9029,3.9064,3.9065,3.9105,3.9066,3.9077,3.9113,3.9115,3.9173,3.9108,3.9155,3.9157,3.9148,3.9287,3.9309,3.9408,3.9242,3.9244,3.9246,0,3.8926,3.8955,3.9047,3.9062,3.9079,3.9121,3.9152,3.9187,3.9206,3.9205,3.9226,3.9207,3.9259,3.9208,3.9279,3.9234,3.9253,3.9257,3.9261,3.9263,3.9205,3.929,3.944,3.9454,3.9267,3.9265,3.9264,0,3.9023,3.9086,3.9149,3.9162,3.9182,3.9212,3.9221,3.9238,3.926,3.9288,3.9301,3.9335,3.9353,3.9379,3.9369,3.9333,3.944,3.9389,3.9438,3.9439,3.946,3.9459,3.9613,3.9477,3.9477,3.9477,3.9476,0,3.9145,3.9202,3.9192,3.9231,3.9293,3.9279,3.9341,3.9347,3.9362,3.94,3.9374,3.941,3.9396,3.9431,3.9423,3.9481,3.949,3.9489,3.9486,3.949,3.9489,3.95,3.9492,3.9481,3.948,3.9479,3.9478,0,3.9264,3.926,3.9325,3.9339,3.9344,3.9389,3.94,3.9435,3.9434,3.9482,3.9493,3.9492,3.9531,3.9524,3.9569,3.9563,3.9635,3.9625,3.9628,3.9625,3.9673,3.9668,3.9838,3.9858,3.9712,3.9713,3.9714,0,3.934,3.9383,3.9401,3.9425,3.9436,3.9475,3.9497,3.9485,3.9509,3.9534,3.9566,3.9603,3.9632,3.9697,3.9699,3.9732,3.9721,3.9778,3.9725,3.9727,3.9718,3.9714,3.9717,3.9787,3.9789,3.9791,3.9792,0,3.9475,3.9471,3.9504,3.9537,3.9564,3.9589,3.9612,3.9632,3.9622,3.965,3.969,3.9713,3.9757,3.9793,3.9824,3.9833,3.981,3.9809,3.9821,3.9824,3.9823,3.9821,3.9654,3.9804,3.9803,3.9802,3.9801,3.9801,3.9573,3.9609,3.9627,3.9664,3.968,3.9701,3.9734,3.9738,3.9771,3.9806,3.9797,3.9842,3.986,3.9898,3.9911,3.9945,3.9923,3.9942,3.9947,3.9951,3.9955,3.982,3.9951,3.995,3.995,3.995,3.9949,0,3.9704,3.9714,3.9749,3.9781,3.981,3.9788,3.9811,3.9836,3.9876,3.9895,3.9924,3.9969,4.0004,4.0009,4.0042,4.0068,4.0058,4.0077,4.0073,4.0075,3.9974,3.9958,4.0084,4.0084,4.0084,4.0084,4.0084,4.0084,3.9776,3.9835,3.9833,3.9898,3.9908,3.9951,3.9966,3.9985,4.0,4.0051,4.0081,4.0084,4.0097,4.013,4.0161,4.0161,4.0173,4.0196,4.0192,4.0096,4.0083,4.007,4.0055,4.0199,4.0199,4.029,4.0291,4.0291]},{"header":{"parameterUnit":"m.s-1","parameterCategory":1,"la1":30.2991,"la2":30.254,"lo1":-89.0895,"lo2":-89.0444,"dy":0.0017,"dx":0.0017,"nx":28,"ny":28,"refTime":"2025-03-11T21:00:00:Z","depth":0,"parameterNumber":3,"parameterNumberName":"V-component_of_WINDS"},"data":[0,0,0,0,0,0,0,0,0,0,0,0,0,0,0,0,0,0,0,0,0,0,0,0,0,0,0,0,0,0,0,0,0,0,0,0,0,0,0,0,0,0,0,0,0,0,0,0,0,0,0,0,0,0,0,0,0,0,2.8601,2.8601,0,2.8602,2.8602,2.8602,2.8569,2.8568,2.8568,2.8567,2.8567,2.8568,2.8569,0,0,0,0,0,0,0,0,0,0,0,0,0,2.8571,2.8571,2.8601,2.8601,2.8601,2.8602,2.8602,2.8602,2.8569,2.8568,2.8567,2.8566,2.8567,2.8568,2.8569,0,0,0,0,0,0,0,0,0,0,0,0,0,2.8579,2.8572,2.8601,2.8585,2.8584,2.8602,2.8602,2.8602,2.857,2.8568,2.8567,2.8566,2.8567,2.8568,2.8569,2.8603,0,0,2.8573,2.8574,0,0,0,0,0,0,0,0,2.8579,2.858,2.8588,2.8586,2.8585,2.8584,2.8592,2.8603,2.857,2.8575,2.8567,2.8565,2.8574,2.8575,2.8578,2.8603,2.8603,2.8573,2.8574,2.8574,2.8575,0,0,0,0,0,0,0,2.8578,2.858,2.8602,2.8588,2.8586,2.8578,2.8577,2.8594,2.8582,2.8574,2.8572,2.8573,2.8573,2.8577,2.8577,2.8603,2.8573,2.8574,2.8575,2.8575,2.8657,2.8658,0,0,0,0,0,0,2.858,2.858,2.8602,2.8602,2.8578,2.8579,2.8579,2.8586,2.8582,2.858,2.8574,2.8571,2.8575,2.8576,2.8577,2.8617,2.8574,2.8576,2.8576,2.8655,2.8657,2.8658,0,0,0,0,0,0,2.8579,2.8582,2.8602,2.859,2.8592,2.8581,2.8589,2.8587,2.859,2.8581,2.8579,2.858,2.8574,2.8576,2.8597,2.8616,2.8576,2.8577,2.8654,2.8656,2.8658,2.8696,0,0,0,0,0,0,2.8578,2.8582,2.8595,2.8591,2.8593,2.8622,2.859,2.8587,2.8592,2.8589,2.8586,2.8584,2.8573,2.8595,2.8598,2.8617,2.8578,2.8652,2.8655,2.8657,2.8693,2.8699,2.8704,0,0,0,0,0,2.8578,2.8606,2.8596,2.8599,2.8609,2.8623,2.8624,2.8611,2.8594,2.8607,2.8601,2.8584,2.8614,2.8598,2.8601,2.862,2.865,2.8654,2.8657,2.869,2.8698,2.8704,0,0,0,0,0,0,2.8613,2.8605,2.8594,2.8622,2.8623,2.8617,2.8633,2.8619,2.8625,2.8622,2.8605,2.8605,2.8629,2.8627,2.8609,2.8653,2.8629,2.8633,2.8653,2.8661,2.8666,2.8666,2.8579,0,0,0,0,0,2.8624,2.8636,2.8628,2.8654,2.8655,2.8644,2.865,2.8639,2.864,2.8641,2.8636,2.8638,2.8647,2.8654,2.8662,2.8692,2.8691,2.8707,2.8713,2.8718,2.8721,2.8737,2.8744,2.8669,2.8669,2.8669,0,0,2.8647,2.8644,2.8652,2.8661,2.866,2.8673,2.8645,2.8659,2.8669,2.8643,2.8663,2.866,2.866,2.8686,2.8697,2.8685,2.8742,2.8722,2.8726,2.8727,2.8741,2.8748,2.8754,2.8671,2.8671,2.867,0,0,2.8694,2.8694,2.8715,2.8715,2.8715,2.8708,2.8713,2.8709,2.8706,2.8726,2.8707,2.8717,2.8734,2.8735,2.8738,2.8786,2.8771,2.8789,2.8819,2.8834,2.884,2.8845,2.8862,2.8869,2.8793,2.8793,2.8793,0,2.8723,2.8741,2.8727,2.8743,2.8747,2.8724,2.8745,2.8746,2.8749,2.8752,2.8738,2.8759,2.8758,2.8783,2.8795,2.8798,2.8803,2.8789,2.8841,2.8846,2.885,2.8866,2.8873,2.8795,2.8795,2.8795,2.8794,0,2.8776,2.8789,2.8806,2.8809,2.8815,2.8833,2.8822,2.8829,2.8818,2.8812,2.8833,2.883,2.8837,2.8843,2.8833,2.8867,2.8859,2.8844,2.8819,2.886,2.8875,2.8881,2.8798,2.8797,2.8797,2.8796,0,0,2.8846,2.8841,2.8848,2.8849,2.8847,2.8857,2.8874,2.8881,2.8888,2.8891,2.8905,2.892,2.8905,2.8908,2.8897,2.8911,2.8949,2.8893,2.8893,2.8903,2.8987,2.8998,2.9006,2.8939,2.894,2.8941,2.8986,0,2.8892,2.8921,2.8909,2.8939,2.8951,2.8929,2.8944,2.8945,2.894,2.8949,2.8943,2.8953,2.8933,2.8935,2.8947,2.8942,2.8965,2.8938,2.8951,2.8952,2.8951,2.9013,2.9026,2.9069,2.8992,2.8993,2.8994,0,2.895,2.8955,2.8987,2.8983,2.8988,2.9001,2.9006,2.9016,2.9016,2.9011,2.9015,2.9001,2.9017,2.8993,2.9015,2.8997,2.9002,2.9,2.9001,2.9002,2.8975,2.9015,2.9082,2.9089,2.9003,2.9002,2.9001,0,2.8998,2.9013,2.9033,2.9035,2.9031,2.9041,2.904,2.9039,2.9044,2.9049,2.9052,2.9058,2.9062,2.9067,2.9056,2.9039,2.9079,2.9055,2.9076,2.9076,2.9085,2.9084,2.9153,2.9089,2.9088,2.9088,2.9088,0,2.905,2.9071,2.9054,2.9067,2.9089,2.9074,2.9096,2.9092,2.9092,2.9103,2.9085,2.9096,2.908,2.909,2.9081,2.9101,2.9102,2.9099,2.9096,2.91,2.9101,2.9103,2.9099,2.909,2.909,2.9089,2.9089,0,2.9107,2.9097,2.9118,2.9113,2.9112,2.9128,2.9123,2.9135,2.9128,2.9143,2.9146,2.9135,2.9146,2.9135,2.9145,2.9138,2.9165,2.9158,2.9165,2.9162,2.9184,2.9182,2.9256,2.9265,2.9195,2.9196,2.9197,0,2.9141,2.9156,2.9152,2.9159,2.9159,2.9169,2.9174,2.916,2.9166,2.9167,2.9179,2.9187,2.9194,2.9211,2.9204,2.9212,2.9205,2.923,2.9205,2.9209,2.9204,2.9204,2.9205,2.9235,2.9236,2.9237,2.9237,0,2.9203,2.9197,2.9205,2.9211,2.9218,2.9222,2.9225,2.9231,2.9216,2.9224,2.9234,2.9239,2.9249,2.9258,2.9263,2.9261,2.9247,2.9245,2.925,2.9254,2.9257,2.9256,2.9178,2.9243,2.9243,2.9242,2.9242,2.9242,2.9249,2.9261,2.926,2.9269,2.927,2.9273,2.9283,2.9278,2.9286,2.9293,2.9284,2.9297,2.9297,2.9302,2.9303,2.9312,2.9301,2.9309,2.9311,2.9313,2.9316,2.9256,2.9313,2.9313,2.9313,2.9313,2.9312,0,2.9309,2.9307,2.9316,2.932,2.9328,2.9314,2.9316,2.9323,2.9334,2.9335,2.9342,2.9353,2.9362,2.9356,2.9363,2.9372,2.9365,2.9374,2.9373,2.9373,2.9325,2.932,2.9379,2.9379,2.9379,2.9379,2.9379,2.9379,2.9341,2.9361,2.9355,2.9374,2.9372,2.9385,2.9387,2.939,2.939,2.9404,2.9411,2.9407,2.9405,2.9412,2.9419,2.9417,2.9421,2.9432,2.9427,2.9383,2.9376,2.937,2.9365,2.9433,2.9433,2.9474,2.9474,2.9475]}]]